Location: ?????
(31.8092°N, 35.2590°E)
Time: 04:34:37
(UTC+00:00)

Cosmos 2360 Rocket - Pass Details

Date: 27 October 2021
Orbit: 832 x 846 km, 71.0° (Epoch: 07 December)

Event Time Altitude Azimuth Distance (km) Brightness Sun altitude
Exits shadow 01:01:04 21° 30° (NNE) 1,800 4.2 -36.7°
Maximum altitude 01:03:08 26° 62° (ENE) 1,594 4.1 -36.2°
Drops below altitude 10° 01:07:49 10° 118° (ESE) 2,459 5.2 -35.3°
Sets 01:10:38 0° 131° (SE) 3,389 5.9 -34.7°
